QPF
0.01 0.01 0.02 0.02 0.02 0.02 0.02 0.03 0.03 0.04 0.03 0.04 0.05 0.04 0.04 0.05 0.05 0.05 0.06 0.06 0.07 0.08 0.09 0.10 0.10 0.10 0.10 0.09 0.08 0.08 0.09 0.12 0.14 0.11 0.11 0.12 0.11 0.13 0.14 0.14 0.13 0.11 0.12
0.01 0.01 0.01 0.02 0.02 0.02 0.02 0.03 0.04 0.04 0.04 0.04 0.05 0.04 0.04 0.04 0.04 0.04 0.04 0.05 0.06 0.06 0.06 0.09 0.10 0.11 0.10 0.09 0.08 0.08 0.09 0.10 0.10 0.10 0.13 0.12 0.10 0.08 0.08 0.09 0.09 0.09 0.12
0.00 0.01 0.01 0.02 0.01 0.01 0.01 0.02 0.03 0.04 0.04 0.04 0.05 0.04 0.05 0.04 0.04 0.04 0.04 0.04 0.04 0.05 0.06 0.07 0.08 0.08 0.08 0.08 0.08 0.08 0.07 0.08 0.08 0.08 0.08 0.11 0.11 0.09 0.09 0.09 0.10 0.11 0.12
0.01 0.01 0.01 0.01 0.01 0.01 0.01 0.02 0.02 0.04 0.05 0.05 0.05 0.06 0.06 0.06 0.05 0.04 0.04 0.03 0.04 0.05 0.05 0.06 0.07 0.07 0.07 0.07 0.06 0.07 0.06 0.06 0.07 0.07 0.06 0.08 0.10 0.10 0.10 0.10 0.09 0.08 0.08
0.01 0.01 0.01 0.01 0.01 0.02 0.02 0.01 0.01 0.02 0.03 0.05 0.05 0.05 0.05 0.05 0.05 0.04 0.04 0.04 0.05 0.05 0.04 0.05 0.05 0.06 0.06 0.06 0.06 0.06 0.06 0.06 0.07 0.09 0.08 0.08 0.09 0.08 0.07 0.09 0.10 0.09 0.08
0.01 0.01 0.01 0.01 0.01 0.01 0.01 0.02 0.02 0.01 0.01 0.03 0.04 0.05 0.04 0.04 0.04 0.04 0.04 0.05 0.05 0.05 0.04 0.03 0.05 0.05 0.05 0.04 0.06 0.05 0.05 0.05 0.07 0.09 0.09 0.08 0.07 0.06 0.06 0.07 0.09 0.10 0.12
0.01 0.01 0.01 0.01 0.01 0.01 0.01 0.01 0.01 0.01 0.01 0.02 0.04 0.04 0.04 0.03 0.03 0.03 0.03 0.03 0.04 0.04 0.04 0.04 0.05 0.06 0.06 0.04 0.04 0.05 0.05 0.05 0.06 0.08 0.08 0.06 0.05 0.06 0.06 0.06 0.06 0.07 0.08
0.01 0.02 0.02 0.02 0.01 0.01 0.01 0.01 0.01 0.01 0.01 0.03 0.03 0.04 0.03 0.03 0.02 0.02 0.02 0.03 0.03 0.03 0.03 0.04 0.05 0.06 0.05 0.04 0.04 0.05 0.05 0.06 0.05 0.05 0.07 0.07 0.05 0.05 0.06 0.06 0.05 0.06 0.06
0.01 0.02 0.01 0.02 0.02 0.02 0.01 0.01 0.01 0.00 0.01 0.01 0.02 0.03 0.03 0.02 0.02 0.01 0.01 0.01 0.02 0.02 0.03 0.03 0.03 0.04 0.04 0.05 0.05 0.06 0.06 0.07 0.07 0.06 0.07 0.07 0.06 0.06 0.05 0.05 0.05 0.05 0.06
0.01 0.01 0.01 0.01 0.01 0.01 0.01 0.01 0.01 0.00 0.00 0.00 0.01 0.02 0.02 0.02 0.03 0.02 0.01 0.01 0.01 0.01 0.02 0.03 0.03 0.03 0.03 0.03 0.05 0.06 0.07 0.07 0.06 0.07 0.07 0.07 0.06 0.06 0.07 0.05 0.05 0.05 0.06
0.01 0.02 0.01 0.01 0.01 0.01 0.01 0.01 0.01 0.01 0.00 0.00 0.00 0.01 0.01 0.03 0.03 0.03 0.02 0.01 0.01 0.01 0.02 0.03 0.03 0.04 0.03 0.02 0.03 0.04 0.05 0.04 0.04 0.05 0.06 0.07 0.06 0.07 0.08 0.08 0.06 0.06 0.05
0.01 0.02 0.01 0.02 0.02 0.01 0.01 0.02 0.02 0.01 0.01 0.01 0.01 0.01 0.01 0.03 0.03 0.02 0.02 0.02 0.01 0.01 0.02 0.03 0.03 0.04 0.03 0.03 0.02 0.02 0.03 0.03 0.03 0.05 0.06 0.06 0.07 0.08 0.07 0.07 0.07 0.07 0.07
0.01 0.01 0.01 0.01 0.00 0.01 0.01 0.02 0.02 0.02 0.02 0.02 0.02 0.02 0.03 0.03 0.03 0.02 0.02 0.02 0.02 0.02 0.02 0.03 0.03 0.03 0.03 0.03 0.02 0.02 0.03 0.07 0.07 0.06 0.06 0.06 0.08 0.08 0.07 0.07 0.06 0.05 0.06
0.01 0.01 0.01 0.01 0.01 0.01 0.02 0.01 0.01 0.01 0.01 0.01 0.02 0.02 0.03 0.03 0.03 0.03 0.02 0.02 0.02 0.02 0.03 0.03 0.03 0.04 0.03 0.03 0.04 0.05 0.08 0.08 0.07 0.06 0.04 0.03 0.04 0.05 0.05 0.05 0.05 0.07 0.08
0.00 0.01 0.02 0.02 0.02 0.01 0.02 0.01 0.01 0.01 0.02 0.01 0.02 0.02 0.03 0.03 0.04 0.03 0.03 0.02 0.02 0.03 0.03 0.03 0.03 0.03 0.03 0.02 0.03 0.04 0.06 0.07 0.06 0.06 0.04 0.03 0.03 0.03 0.03 0.03 0.04 0.05 0.05
0.01 0.01 0.02 0.03 0.02 0.02 0.02 0.01 0.01 0.02 0.02 0.03 0.02 0.03 0.03 0.04 0.04 0.04 0.04 0.04 0.03 0.03 0.03 0.03 0.02 0.02 0.02 0.02 0.02 0.03 0.05 0.04 0.05 0.04 0.04 0.03 0.02 0.02 0.02 0.02 0.02 0.03 0.03
0.01 0.01 0.02 0.03 0.02 0.02 0.01 0.01 0.01 0.01 0.02 0.04 0.05 0.04 0.03 0.04 0.05 0.04 0.05 0.05 0.05 0.05 0.04 0.03 0.03 0.03 0.03 0.03 0.02 0.03 0.05 0.05 0.05 0.05 0.05 0.03 0.01 0.01 0.01 0.02 0.02 0.02 0.03
0.01 0.01 0.02 0.03 0.02 0.02 0.02 0.01 0.01 0.01 0.01 0.03 0.05 0.06 0.05 0.04 0.06 0.06 0.05 0.05 0.05 0.05 0.05 0.04 0.04 0.04 0.03 0.03 0.03 0.02 0.05 0.06 0.06 0.06 0.05 0.04 0.03 0.02 0.03 0.03 0.02 0.02 0.03
0.02 0.02 0.03 0.04 0.05 0.03 0.03 0.02 0.02 0.02 0.01 0.02 0.02 0.03 0.06 0.05 0.06 0.05 0.04 0.05 0.05 0.05 0.05 0.06 0.04 0.03 0.03 0.02 0.02 0.03 0.04 0.07 0.08 0.07 0.06 0.06 0.04 0.03 0.02 0.03 0.03 0.04 0.03
0.01 0.02 0.04 0.06 0.07 0.06 0.05 0.04 0.05 0.04 0.02 0.02 0.02 0.02 0.03 0.05 0.04 0.04 0.04 0.04 0.04 0.03 0.05 0.05 0.06 0.05 0.03 0.02 0.02 0.02 0.03 0.03 0.04 0.06 0.06 0.06 0.04 0.03 0.02 0.02 0.03 0.02 0.02
0.01 0.02 0.03 0.05 0.05 0.04 0.04 0.05 0.09 0.10 0.06 0.05 0.04 0.03 0.03 0.04 0.05 0.05 0.04 0.03 0.03 0.03 0.03 0.04 0.04 0.06 0.06 0.03 0.01 0.01 0.03 0.03 0.03 0.03 0.03 0.03 0.02 0.02 0.02 0.02 0.02 0.02 0.02
0.01 0.01 0.03 0.04 0.03 0.03 0.03 0.04 0.07 0.15 0.14 0.09 0.05 0.04 0.04 0.04 0.04 0.04 0.03 0.03 0.03 0.02 0.02 0.03 0.03 0.03 0.05 0.04 0.03 0.01 0.01 0.02 0.03 0.03 0.03 0.02 0.01 0.01 0.01 0.01 0.01 0.01 0.01
0.02 0.02 0.03 0.04 0.03 0.03 0.03 0.04 0.05 0.06 0.09 0.14 0.12 0.07 0.04 0.04 0.05 0.05 0.04 0.03 0.03 0.03 0.02 0.02 0.02 0.03 0.03 0.04 0.02 0.01 0.01 0.01 0.02 0.01 0.02 0.02 0.01 0.01 0.01 0.01 0.01 0.01 0.01
0.02 0.03 0.05 0.06 0.04 0.03 0.03 0.02 0.03 0.04 0.05 0.06 0.07 0.07 0.05 0.04 0.04 0.04 0.04 0.04 0.03 0.03 0.03 0.03 0.03 0.02 0.03 0.03 0.02 0.02 0.01 0.01 0.01 0.01 0.01 0.01 0.01 0.02 0.01 0.01 0.02 0.02 0.02
0.03 0.05 0.06 0.08 0.06 0.05 0.04 0.03 0.02 0.03 0.04 0.04 0.05 0.05 0.04 0.03 0.03 0.03 0.03 0.03 0.03 0.03 0.03 0.03 0.03 0.03 0.03 0.02 0.02 0.01 0.01 0.01 0.01 0.01 0.02 0.02 0.03 0.02 0.03 0.03 0.04 0.04 0.03
0.04 0.06 0.07 0.08 0.07 0.06 0.05 0.03 0.02 0.03 0.05 0.05 0.05 0.06 0.04 0.03 0.03 0.03 0.03 0.02 0.02 0.02 0.02 0.04 0.04 0.04 0.03 0.03 0.02 0.02 0.02 0.02 0.02 0.02 0.03 0.03 0.03 0.03 0.03 0.03 0.03 0.03 0.03
MSLP
1003.93 1004.49 1004.89 1005.10 1005.12 1004.99 1004.78 1004.56 1004.42 1004.40 1004.52 1004.75 1005.06 1005.40 1005.69 1005.92 1006.05 1006.10 1006.12 1006.13 1006.19 1006.34 1006.58 1006.93 1007.34 1007.79 1008.22 1008.62 1008.95 1009.22 1009.43 1009.60 1009.75 1009.92 1010.12 1010.36 1010.65 1010.99 1011.38 1011.83 1012.32 1012.87 1013.46
1003.83 1004.58 1005.17 1005.53 1005.66 1005.59 1005.40 1005.18 1005.02 1004.97 1005.04 1005.24 1005.51 1005.79 1006.02 1006.17 1006.22 1006.19 1006.11 1006.03 1006.02 1006.11 1006.33 1006.65 1007.07 1007.53 1008.00 1008.43 1008.81 1009.13 1009.39 1009.62 1009.84 1010.06 1010.32 1010.61 1010.94 1011.30 1011.71 1012.14 1012.61 1013.11 1013.64
1003.49 1004.44 1005.22 1005.74 1006.00 1006.03 1005.91 1005.72 1005.56 1005.50 1005.55 1005.71 1005.94 1006.17 1006.35 1006.43 1006.41 1006.30 1006.15 1006.01 1005.94 1005.99 1006.17 1006.48 1006.89 1007.36 1007.85 1008.31 1008.73 1009.10 1009.42 1009.71 1010.00 1010.30 1010.62 1010.96 1011.33 1011.72 1012.12 1012.53 1012.95 1013.38 1013.82
1002.99 1004.10 1005.05 1005.74 1006.15 1006.30 1006.27 1006.14 1006.02 1005.97 1006.02 1006.16 1006.36 1006.55 1006.68 1006.71 1006.64 1006.47 1006.26 1006.07 1005.96 1005.96 1006.11 1006.39 1006.79 1007.27 1007.76 1008.25 1008.71 1009.13 1009.51 1009.87 1010.22 1010.59 1010.97 1011.36 1011.76 1012.15 1012.53 1012.89 1013.24 1013.57 1013.90
1002.39 1003.62 1004.71 1005.55 1006.10 1006.38 1006.46 1006.42 1006.36 1006.35 1006.42 1006.56 1006.74 1006.91 1007.01 1007.00 1006.89 1006.68 1006.43 1006.19 1006.03 1005.99 1006.09 1006.35 1006.72 1007.18 1007.68 1008.19 1008.68 1009.14 1009.58 1010.01 1010.43 1010.85 1011.28 1011.71 1012.12 1012.49 1012.83 1013.13 1013.38 1013.60 1013.80
1001.81 1003.09 1004.26 1005.21 1005.88 1006.28 1006.48 1006.54 1006.57 1006.61 1006.72 1006.88 1007.06 1007.22 1007.30 1007.28 1007.13 1006.89 1006.60 1006.32 1006.11 1006.01 1006.06 1006.26 1006.59 1007.02 1007.51 1008.03 1008.55 1009.06 1009.55 1010.04 1010.52 1010.99 1011.46 1011.89 1012.29 1012.64 1012.92 1013.13 1013.29 1013.39 1013.48
1001.32 1002.58 1003.77 1004.76 1005.51 1006.01 1006.31 1006.48 1006.59 1006.71 1006.88 1007.07 1007.28 1007.44 1007.52 1007.49 1007.32 1007.05 1006.73 1006.40 1006.13 1005.97 1005.95 1006.09 1006.36 1006.74 1007.20 1007.71 1008.25 1008.79 1009.34 1009.87 1010.40 1010.91 1011.39 1011.83 1012.21 1012.51 1012.73 1012.87 1012.94 1012.96 1012.95
1000.99 1002.15 1003.28 1004.26 1005.03 1005.58 1005.96 1006.22 1006.42 1006.62 1006.85 1007.10 1007.34 1007.52 1007.62 1007.58 1007.41 1007.13 1006.78 1006.41 1006.08 1005.85 1005.75 1005.80 1005.99 1006.31 1006.73 1007.22 1007.76 1008.32 1008.90 1009.48 1010.04 1010.57 1011.06 1011.49 1011.84 1012.10 1012.27 1012.35 1012.37 1012.34 1012.29
1000.84 1001.85 1002.85 1003.74 1004.47 1005.04 1005.46 1005.78 1006.05 1006.33 1006.63 1006.93 1007.22 1007.44 1007.56 1007.54 1007.38 1007.10 1006.73 1006.33 1005.96 1005.66 1005.47 1005.43 1005.54 1005.78 1006.14 1006.59 1007.12 1007.68 1008.27 1008.87 1009.44 1009.99 1010.47 1010.88 1011.21 1011.44 1011.58 1011.65 1011.65 1011.62 1011.57
1000.89 1001.70 1002.52 1003.27 1003.92 1004.44 1004.86 1005.21 1005.54 1005.87 1006.23 1006.58 1006.91 1007.18 1007.34 1007.36 1007.23 1006.97 1006.61 1006.20 1005.79 1005.44 1005.19 1005.07 1005.09 1005.25 1005.53 1005.93 1006.41 1006.95 1007.53 1008.12 1008.69 1009.22 1009.69 1010.09 1010.40 1010.62 1010.76 1010.84 1010.87 1010.88 1010.89
1001.14 1001.73 1002.34 1002.92 1003.44 1003.87 1004.25 1004.60 1004.94 1005.31 1005.70 1006.09 1006.47 1006.77 1006.98 1007.05 1006.97 1006.76 1006.44 1006.05 1005.65 1005.28 1004.98 1004.79 1004.73 1004.80 1005.01 1005.32 1005.74 1006.23 1006.76 1007.31 1007.85 1008.36 1008.81 1009.19 1009.49 1009.72 1009.89 1010.01 1010.11 1010.20 1010.31
1001.58 1001.95 1002.36 1002.75 1003.11 1003.43 1003.74 1004.04 1004.37 1004.73 1005.13 1005.54 1005.94 1006.27 1006.52 1006.65 1006.64 1006.50 1006.25 1005.92 1005.56 1005.20 1004.88 1004.65 1004.52 1004.51 1004.62 1004.85 1005.17 1005.58 1006.04 1006.53 1007.02 1007.49 1007.91 1008.27 1008.58 1008.82 1009.03 1009.22 1009.40 1009.60 1009.82
1002.18 1002.37 1002.59 1002.80 1003.00 1003.20 1003.41 1003.64 1003.91 1004.23 1004.60 1005.00 1005.39 1005.74 1006.02 1006.21 1006.27 1006.22 1006.06 1005.82 1005.52 1005.20 1004.90 1004.64 1004.46 1004.37 1004.39 1004.51 1004.72 1005.02 1005.39 1005.80 1006.22 1006.64 1007.02 1007.37 1007.68 1007.96 1008.22 1008.47 1008.74 1009.04 1009.37
1002.92 1002.97 1003.03 1003.09 1003.15 1003.21 1003.30 1003.44 1003.63 1003.88 1004.18 1004.52 1004.87 1005.21 1005.51 1005.73 1005.87 1005.90 1005.84 1005.70 1005.49 1005.23 1004.96 1004.70 1004.47 1004.31 1004.23 1004.23 1004.33 1004.51 1004.78 1005.09 1005.44 1005.80 1006.16 1006.50 1006.82 1007.13 1007.44 1007.76 1008.11 1008.49 1008.90
1003.75 1003.72 1003.66 1003.59 1003.52 1003.46 1003.43 1003.45 1003.53 1003.68 1003.89 1004.14 1004.43 1004.72 1005.00 1005.25 1005.43 1005.54 1005.57 1005.52 1005.39 1005.20 1004.96 1004.70 1004.44 1004.22 1004.04 1003.93 1003.91 1003.98 1004.14 1004.37 1004.65 1004.97 1005.31 1005.65 1005.99 1006.33 1006.68 1007.05 1007.45 1007.88 1008.36
1004.61 1004.51 1004.37 1004.21 1004.03 1003.86 1003.72 1003.63 1003.59 1003.62 1003.71 1003.86 1004.05 1004.28 1004.51 1004.75 1004.95 1005.11 1005.20 1005.22 1005.17 1005.03 1004.82 1004.56 1004.27 1003.98 1003.72 1003.52 1003.39 1003.36 1003.43 1003.59 1003.82 1004.12 1004.45 1004.81 1005.17 1005.54 1005.93 1006.33 1006.76 1007.22 1007.71
1005.39 1005.25 1005.05 1004.81 1004.55 1004.30 1004.07 1003.87 1003.72 1003.63 1003.61 1003.64 1003.73 1003.87 1004.04 1004.24 1004.43 1004.60 1004.73 1004.80 1004.78 1004.67 1004.48 1004.21 1003.89 1003.55 1003.22 1002.94 1002.74 1002.63 1002.64 1002.76 1002.98 1003.27 1003.62 1004.00 1004.40 1004.81 1005.22 1005.63 1006.06 1006.51 1006.98
1005.95 1005.77 1005.53 1005.24 1004.93 1004.62 1004.32 1004.04 1003.81 1003.63 1003.51 1003.44 1003.44 1003.50 1003.60 1003.74 1003.90 1004.06 1004.19 1004.26 1004.25 1004.16 1003.96 1003.68 1003.33 1002.95 1002.58 1002.24 1001.99 1001.85 1001.84 1001.95 1002.18 1002.49 1002.88 1003.30 1003.74 1004.17 1004.59 1005.00 1005.41 1005.82 1006.24
1006.16 1005.95 1005.68 1005.36 1005.02 1004.67 1004.34 1004.03 1003.76 1003.53 1003.35 1003.23 1003.16 1003.15 1003.20 1003.29 1003.40 1003.53 1003.63 1003.68 1003.66 1003.56 1003.35 1003.05 1002.69 1002.28 1001.89 1001.54 1001.28 1001.13 1001.13 1001.26 1001.52 1001.87 1002.30 1002.76 1003.23 1003.68 1004.10 1004.50 1004.86 1005.22 1005.57
1005.94 1005.69 1005.39 1005.05 1004.71 1004.37 1004.06 1003.76 1003.50 1003.28 1003.09 1002.96 1002.87 1002.83 1002.84 1002.90 1002.98 1003.06 1003.13 1003.16 1003.11 1002.98 1002.76 1002.46 1002.09 1001.69 1001.30 1000.96 1000.72 1000.60 1000.62 1000.79 1001.09 1001.49 1001.95 1002.44 1002.92 1003.38 1003.78 1004.13 1004.45 1004.74 1005.02
1005.26 1004.96 1004.64 1004.32 1004.00 1003.71 1003.44 1003.21 1003.01 1002.85 1002.72 1002.62 1002.56 1002.53 1002.55 1002.59 1002.65 1002.70 1002.74 1002.74 1002.67 1002.53 1002.31 1002.00 1001.65 1001.28 1000.92 1000.62 1000.42 1000.34 1000.41 1000.61 1000.94 1001.36 1001.84 1002.33 1002.80 1003.23 1003.59 1003.90 1004.15 1004.37 1004.58
1004.15 1003.83 1003.51 1003.22 1002.96 1002.74 1002.56 1002.43 1002.33 1002.27 1002.23 1002.21 1002.22 1002.24 1002.29 1002.34 1002.40 1002.44 1002.47 1002.45 1002.37 1002.23 1002.02 1001.75 1001.43 1001.10 1000.80 1000.56 1000.41 1000.38 1000.48 1000.71 1001.04 1001.45 1001.90 1002.36 1002.79 1003.17 1003.47 1003.71 1003.90 1004.06 1004.21
1002.76 1002.44 1002.15 1001.91 1001.72 1001.60 1001.53 1001.51 1001.54 1001.59 1001.67 1001.75 1001.84 1001.94 1002.02 1002.11 1002.18 1002.24 1002.26 1002.24 1002.18 1002.06 1001.88 1001.65 1001.40 1001.14 1000.91 1000.73 1000.63 1000.64 1000.76 1000.98 1001.28 1001.65 1002.04 1002.43 1002.78 1003.08 1003.31 1003.48 1003.61 1003.72 1003.83
1001.29 1001.00 1000.76 1000.59 1000.49 1000.46 1000.50 1000.60 1000.74 1000.90 1001.08 1001.26 1001.43 1001.58 1001.72 1001.83 1001.93 1002.00 1002.03 1002.03 1001.99 1001.91 1001.79 1001.63 1001.45 1001.27 1001.12 1001.00 1000.95 1000.98 1001.10 1001.28 1001.53 1001.82 1002.12 1002.40 1002.65 1002.86 1003.01 1003.11 1003.19 1003.27 1003.38
999.99 999.75 999.58 999.48 999.47 999.52 999.65 999.83 1000.05 1000.28 1000.53 1000.76 1000.98 1001.17 1001.33 1001.47 1001.57 1001.65 1001.71 1001.73 1001.73 1001.70 1001.64 1001.56 1001.46 1001.37 1001.29 1001.23 1001.22 1001.26 1001.35 1001.48 1001.65 1001.84 1002.02 1002.19 1002.33 1002.43 1002.51 1002.56 1002.61 1002.69 1002.81
999.08 998.91 998.81 998.79 998.84 998.95 999.12 999.33 999.57 999.83 1000.08 1000.31 1000.53 1000.71 1000.86 1000.98 1001.09 1001.17 1001.23 1001.28 1001.32 1001.34 1001.35 1001.34 1001.33 1001.31 1001.30 1001.30 1001.31 1001.34 1001.40 1001.47 1001.55 1001.63 1001.71 1001.76 1001.80 1001.82 1001.84 1001.86 1001.91 1002.01 1002.17
Thickness
5808 5808 5805 5801 5796 5791 5787 5784 5781 5779 5776 5773 5770 5767 5765 5765 5765 5763 5761 5758 5756 5754 5752 5751 5751 5749 5747 5746 5745 5744 5742 5741 5741 5737 5735 5737 5741 5741 5741 5741 5741 5740 5739
5802 5800 5799 5796 5791 5787 5784 5781 5778 5776 5774 5772 5770 5767 5765 5763 5762 5761 5759 5757 5754 5752 5752 5749 5748 5747 5745 5744 5743 5741 5739 5739 5739 5734 5730 5727 5731 5737 5741 5740 5739 5738 5738
5798 5795 5793 5791 5788 5785 5782 5780 5776 5774 5772 5771 5768 5766 5763 5760 5758 5755 5754 5754 5752 5750 5748 5747 5746 5744 5743 5741 5740 5739 5737 5734 5737 5737 5731 5725 5722 5728 5734 5737 5737 5737 5736
5800 5794 5791 5787 5785 5783 5781 5778 5774 5772 5770 5768 5765 5761 5757 5753 5753 5752 5751 5750 5749 5748 5746 5745 5743 5742 5740 5739 5738 5738 5737 5734 5732 5734 5734 5732 5730 5723 5722 5728 5733 5734 5733
5799 5794 5790 5787 5785 5783 5779 5775 5771 5768 5767 5765 5763 5759 5756 5754 5753 5751 5748 5747 5746 5745 5743 5742 5741 5739 5738 5737 5736 5735 5734 5733 5731 5730 5730 5730 5729 5728 5721 5718 5723 5727 5729
5798 5792 5789 5786 5782 5780 5776 5772 5767 5764 5763 5761 5759 5756 5753 5751 5748 5747 5744 5744 5743 5742 5741 5740 5738 5737 5736 5735 5734 5733 5731 5730 5729 5728 5727 5726 5724 5723 5721 5718 5718 5720 5723
5796 5789 5784 5781 5778 5776 5772 5769 5763 5759 5759 5757 5755 5753 5750 5748 5745 5744 5742 5741 5739 5738 5737 5737 5735 5734 5733 5733 5731 5730 5728 5727 5726 5724 5724 5725 5725 5725 5722 5718 5716 5716 5719
5793 5789 5783 5779 5776 5773 5770 5766 5760 5756 5755 5753 5751 5750 5747 5746 5744 5742 5741 5739 5738 5736 5736 5734 5733 5732 5731 5730 5728 5727 5726 5725 5723 5723 5722 5721 5722 5722 5721 5717 5714 5710 5711
5790 5787 5783 5777 5774 5771 5767 5763 5758 5754 5752 5750 5748 5746 5744 5742 5741 5740 5739 5738 5736 5735 5734 5732 5730 5728 5727 5726 5725 5723 5722 5721 5720 5719 5719 5718 5718 5719 5718 5717 5715 5708 5702
5784 5782 5779 5774 5769 5767 5764 5760 5755 5752 5750 5747 5745 5743 5741 5739 5738 5736 5734 5733 5733 5732 5730 5728 5726 5725 5724 5723 5722 5720 5719 5717 5716 5715 5714 5714 5714 5714 5714 5713 5712 5710 5705
5778 5776 5772 5769 5765 5762 5758 5754 5751 5748 5746 5744 5742 5740 5738 5736 5734 5732 5731 5730 5729 5728 5726 5724 5722 5721 5720 5719 5717 5716 5715 5713 5711 5711 5710 5710 5710 5708 5707 5707 5706 5705 5703
5773 5770 5767 5763 5757 5755 5752 5749 5746 5744 5742 5741 5738 5735 5734 5732 5730 5729 5728 5727 5725 5724 5723 5721 5719 5717 5716 5714 5713 5711 5710 5708 5707 5706 5705 5704 5704 5703 5702 5701 5700 5699 5699
5764 5761 5758 5755 5752 5749 5746 5744 5742 5740 5739 5736 5733 5730 5728 5727 5725 5724 5723 5722 5721 5720 5719 5717 5714 5712 5711 5710 5709 5707 5706 5705 5703 5701 5699 5698 5697 5696 5696 5695 5695 5694 5695
5753 5750 5746 5745 5744 5743 5741 5738 5737 5736 5734 5731 5728 5725 5724 5722 5721 5720 5718 5717 5716 5715 5714 5712 5710 5708 5706 5705 5703 5702 5701 5699 5698 5697 5695 5694 5693 5691 5690 5690 5689 5689 5687
5743 5740 5735 5735 5735 5734 5734 5733 5731 5730 5729 5725 5723 5720 5719 5718 5716 5715 5713 5712 5711 5711 5709 5707 5705 5703 5701 5699 5697 5696 5695 5693 5692 5691 5690 5689 5688 5686 5685 5684 5683 5682 5680
5735 5733 5730 5727 5726 5726 5726 5726 5725 5724 5722 5720 5718 5716 5714 5712 5710 5709 5708 5706 5705 5704 5703 5701 5699 5697 5695 5692 5691 5690 5688 5687 5686 5685 5684 5683 5681 5680 5678 5677 5677 5676 5674
5726 5723 5721 5719 5718 5718 5719 5718 5718 5718 5716 5714 5712 5711 5709 5707 5705 5704 5702 5700 5699 5697 5695 5694 5692 5689 5687 5685 5684 5683 5682 5681 5680 5679 5677 5677 5677 5674 5672 5671 5670 5670 5670
5716 5715 5713 5712 5712 5712 5712 5712 5712 5710 5708 5706 5705 5705 5704 5701 5700 5698 5695 5695 5693 5690 5688 5686 5685 5683 5681 5679 5677 5676 5675 5674 5674 5673 5672 5670 5668 5667 5665 5665 5665 5665 5665
5708 5706 5706 5705 5704 5704 5704 5703 5702 5701 5700 5698 5697 5697 5697 5695 5693 5690 5688 5687 5685 5682 5681 5680 5679 5677 5674 5672 5671 5669 5668 5667 5667 5667 5665 5664 5661 5659 5657 5657 5656 5657 5658
5699 5697 5697 5697 5695 5695 5696 5694 5693 5692 5691 5691 5691 5691 5691 5688 5686 5684 5682 5681 5679 5676 5675 5673 5672 5671 5668 5665 5664 5661 5661 5660 5659 5658 5657 5655 5653 5651 5649 5649 5649 5649 5650
5690 5689 5688 5687 5686 5687 5686 5685 5684 5683 5684 5685 5685 5684 5683 5682 5680 5678 5676 5674 5672 5670 5668 5666 5666 5664 5662 5658 5656 5653 5653 5652 5651 5650 5649 5646 5645 5644 5642 5641 5642 5642 5642
5680 5680 5678 5677 5678 5678 5677 5676 5675 5677 5678 5678 5677 5676 5676 5676 5674 5671 5669 5667 5664 5662 5660 5659 5658 5657 5655 5652 5648 5646 5644 5642 5642 5642 5642 5639 5637 5636 5636 5635 5636 5635 5635
5671 5671 5670 5669 5669 5669 5669 5667 5668 5669 5670 5669 5667 5667 5668 5668 5666 5663 5661 5659 5657 5656 5654 5652 5650 5649 5648 5645 5641 5638 5636 5635 5634 5635 5633 5631 5631 5630 5631 5631 5630 5629 5630
5661 5661 5661 5659 5659 5660 5660 5660 5661 5662 5661 5660 5659 5659 5659 5658 5657 5655 5654 5652 5650 5649 5647 5645 5643 5642 5641 5638 5634 5631 5629 5627 5626 5626 5625 5624 5625 5625 5625 5626 5626 5626 5627
5653 5653 5652 5652 5651 5652 5652 5653 5654 5654 5652 5652 5652 5651 5651 5650 5648 5646 5644 5644 5641 5640 5638 5638 5637 5635 5633 5628 5625 5624 5623 5622 5619 5618 5619 5619 5620 5620 5622 5623 5623 5623 5623
5646 5646 5646 5646 5645 5645 5645 5645 5646 5646 5645 5643 5643 5643 5643 5642 5641 5639 5635 5633 5632 5630 5629 5628 5628 5626 5624 5621 5619 5618 5616 5614 5613 5612 5614 5614 5615 5616 5617 5618 5618 5618 5617